Regional Weather Roundup
Issued by NWS

Home | Current Version | Previous Version | Text Only | Print | Product List | Glossary Off
Versions: 1 2 3 4 5 6 7 8 9 10 11 12 13 14 15 16 17 18 19 20 21 22 23 24 25 26 27

000
ASUS45 KTFX 212310
RWRMT
MONTANA REGIONAL WEATHER ROUNDUP
NATIONAL WEATHER SERVICE GREAT FALLS MT
500 PM MDT FRI JUL 21 2017

NOTE: "FAIR" INDICATES FEW OR NO CLOUDS BELOW 12000 FEET WITH NO
SIGNIFICANT WEATHER AND/OR OBSTRUCTIONS TO VISIBILITY.

MTZ001>007-043-220000-
WEST OF THE DIVIDE

CITY           SKY/WX    TMP DP  RH WIND       PRES   REMARKS
KALISPELL      SUNNY     83  35  18 SW14      30.03S HAZE
MISSOULA       SUNNY     84  31  14 NW16      30.05S
BUTTE          SUNNY     82  23  11 NW14G21   30.14S
MULLAN PASS    SUNNY     65  36  34 CALM      30.25S
ANACONDA         N/A     81  23  12 W15G24    30.11R
DEER LODGE       N/A     81  30  16 W9G23     30.10F
EUREKA           N/A     82  39  21 MISG      30.03S
HAMILTON         N/A     82  28  14 SW8G18    30.07S
LIBBY            N/A     81  34  18 W9        30.05S
PLAINS           N/A     83  40  21 W10       30.05S
$$

MTZ008-052>055-220000-
SOUTHWEST MONTANA

CITY           SKY/WX    TMP DP  RH WIND       PRES   REMARKS
BOZEMAN        SUNNY     87  26  11 W3        30.05F
DILLON         SUNNY     84  32  15 VRB6      30.09F
W YELLOWSTONE  SUNNY     79  21  11 SW9G20    30.21F
ENNIS          SUNNY     86  21   9 W18       30.16S
THREE FORKS      N/A     89  29  11 W12       30.02F
TWIN BRIDGES     N/A     86  33  15 S3        30.06F
$$

MTZ009-010-012-014-046-048-049-054-220000-
EAST SLOPES AND CENTRAL MONTANA

CITY           SKY/WX    TMP DP  RH WIND       PRES   REMARKS
CUT BANK       SUNNY     81  27  14 W16G28    30.00S
GREAT FALLS    SUNNY     86  22   9 W14G24    29.98S
MALMSTROM AFB  SUNNY     85  26  11 W14G24    29.98S
HELENA         SUNNY     88  26  10 W14G25    30.02S
CHOTEAU          N/A     84  25  11 NW9       30.03R
$$

MTZ011-013-016-021-045-047-050-051-220000-
NORTH CENTRAL MONTANA

CITY           SKY/WX    TMP DP  RH WIND       PRES   REMARKS
HAVRE          SUNNY     87  25  10 W18G25    29.91S
LEWISTOWN      SUNNY     84  23  10 NW10G25   30.00F
N BAR RANCH      N/A     84  21  10 N18G25    30.04S
CHINOOK          N/A     86  28  12 W18G24    29.89F
$$

MTZ017>020-022>027-061-062-220000-
NORTHEAST MONTANA

CITY           SKY/WX    TMP DP  RH WIND       PRES   REMARKS
GLASGOW        SUNNY     87  33  14 MISG      29.87F
JORDAN           N/A     89  24   9 NW15G23   29.90S
SIDNEY         SUNNY     92  33  12 W17G26    29.83S
WOLF POINT     SUNNY     91  31  11 W20G26    29.86R
MALTA          SUNNY     88  27  11 W21G28    29.88F
PLENTYWOOD       N/A     84  45  24 W17G28    29.85S
POPLAR           N/A     90  36  14 W17G25    29.85R
SCOBEY           N/A     84  41  22 NW13      29.88
$$

MTZ028>42-056>058-220000-
SOUTHCENTRAL AND SOUTHEAST MONTANA

CITY           SKY/WX    TMP DP  RH WIND       PRES   REMARKS
BAKER          SUNNY     91  27  10 W14G26    29.92S
BILLINGS       SUNNY     93  15   6 NW18G30   29.95F
LIVINGSTON     SUNNY     89  26  10 W20G28    30.03F
MILES CITY     SUNNY     93  22   7 W14G22    29.89F
BIG TIMBER     SUNNY     88  28  11 W20G26    30.04F
EKALAKA          N/A     88  31  13 N12       29.94F
FORSYTH          N/A     91  30  11 NW5       29.89F
LAUREL           N/A     92  21   7 NW16      29.96S
$$

REGIONAL REPORTS...DAKOTAS

CITY           SKY/WX    TMP DP  RH WIND       PRES   REMARKS
WILLISTON      SUNNY     95  35  12 W20G26    29.79F HX  90
MINOT            N/A     91  60  35 W5        29.77F HX  90
DICKINSON      MOSUNNY   93  52  24 NW16G22   29.82F HX  90
BEACH            N/A     90  27  10 NW18G26   29.92S
CROSBY         PTSUNNY   86  57  37 NW12G18   29.79S
TIOGA            N/A     90  48  24 W15G24    29.81F
WATFORD CITY     N/A     93  39  15 W16G22    29.80S
BISMARCK       MOSUNNY   91  67  44 NW7       29.79S HX  94
GRAND FORKS      N/A     80  74  81 N8        29.73R
FARGO          LGT RAIN  77  70  79 N20G31    29.73F
BUFFALO SD       N/A     91  39  16 NW18G26   29.84S
RAPID CITY     SUNNY     94  48  20 N20G29    29.91S HX  90
$$

REGIONAL REPORTS...WYOMING/IDAHO/WASHINGTON

CITY           SKY/WX    TMP DP  RH WIND       PRES   REMARKS
GILLETTE       SUNNY     90  34  13 VRB7      30.01F
SHERIDAN       SUNNY     89  34  14 MISG      30.00F
BUFFALO WY     SUNNY     86  36  16 N10       30.08F
CODY           SUNNY     85  41  21 NE9       30.05F
YELLOWSTONE LA   N/A     72  23  16 W9        30.32S
IDAHO FALLS    SUNNY     87  33  14 SE13      30.09F
BOISE          SUNNY     93  39  15 N15G21    30.00F
SPOKANE        MOSUNNY   79  37  22 SW8       30.10F
$$

REGIONAL REPORTS...ALBERTA

CITY           SKY/WX    TMP DP  RH WIND       PRES   REMARKS
EDMONTON       PTSUNNY   66  57  72 NW7       29.90R
CALGARY        MOSUNNY   70  43  37 NW12      30.01S
LETHBRIDGE     PTSUNNY   81  36  19 NW13G24   29.96S
MEDICINE HAT   PTSUNNY   82  37  20 W15G22    29.90F
WATERTON GATE    N/A     73  39  29 SW12G22     N/A
CARDSTON         N/A     77  37  24 NW12G18     N/A
MILK RIVER       N/A     79  41  25 NW17G25     N/A
$$

REGIONAL REPORTS...SASKATCHEWAN

CITY           SKY/WX    TMP DP  RH WIND       PRES   REMARKS
SWIFT CURRENT  MOSUNNY   70  46  43 N20G28    29.91R
REGINA         MOSUNNY   82  52  34 W21G30    29.79S
SASKATOON      CLOUDY    66  59  77 N13       29.86R
CYPRESS HILLS    N/A     72  36  26 NW9         N/A
VAL MARIE        N/A     82  30  15 NW13G18     N/A
ROCKGLEN         N/A     79  37  22 NW13G20     N/A
ASSINIBOIA       N/A     66  55  68 NW7         N/A
$$




USA.gov is the U.S. government's official web portal to all federal, state and local government web resources and services.